Back to catalog

FENGYUN 1C DEB

AliveSSO
NORAD 33745·DEBRIS·🇨🇳 China

Launched May 10, 1999 from Taiyuan Satellite Launch Center

Loading…

Next Passes (next 24 hours)

TLE

FreshSource: Space-Track

Epoch: Sep 14, 2026, 02:15 UTC

1 33745U 99025DJJ 26257.09401235  .00001711  00000-0  75809-3 0  9995
2 33745  99.0961 308.5736 0053627 198.7241 161.1965 14.23757533699187

Track FENGYUN 1C DEB in real time with AllMySat

Download on the App Store